This is the latest recevied weather packets stored in our database for station/object N2MLB-WX. If no packets are shown the sender has not sent any weather packets the latest 10 day(s).
| Time | Temp. | Humidity | Pressure | Rain* | Wind** | Luminosity | Snow |
|---|---|---|---|---|---|---|---|
| 1777921941 | 22.78° C | 38% | 1001 hPa | 0 mm | - | 146 W/m² | - |
| 1777921341 | 23.89° C | 38% | 1001 hPa | 0 mm | - | 156 W/m² | - |
| 1777921042 | 23.33° C | 39% | 1001 hPa | 0 mm | - | 158 W/m² | - |
| 1777920739 | 22.78° C | 41% | 1001 hPa | 0 mm | - | 159 W/m² | - |
| 1777920441 | 21.67° C | 41% | 1001 hPa | 0 mm | - | 159 W/m² | - |
| 1777919842 | 23.33° C | 40% | 1001 hPa | 0 mm | - | 163 W/m² | - |
| 1777919542 | 22.22° C | 46% | 1001 hPa | 0 mm | - | 163 W/m² | - |
| 1777919242 | 22.22° C | 40% | 1001 hPa | 0 mm | - | 165 W/m² | - |
| 1777918944 | 22.22° C | 41% | 1001 hPa | 0 mm | - | 165 W/m² | - |
| 1777918644 | 21.11° C | 44% | 1001 hPa | 0 mm | - | 166 W/m² | - |
| 1777918344 | 19.44° C | 44% | 1001 hPa | 0 mm | - | 166 W/m² | - |
| 1777918042 | 21.11° C | 48% | 1001 hPa | 0 mm | - | 168 W/m² | - |
| 1777917742 | 21.11° C | 43% | 1001 hPa | 0 mm | - | 165 W/m² | - |
| 1777917442 | 20° C | 47% | 1002 hPa | 0 mm | - | 166 W/m² | - |
| 1777916241 | 20.56° C | 43% | 1002 hPa | 0 mm | - | 168 W/m² | - |
| 1777915941 | 19.44° C | 46% | 1002 hPa | 0 mm | - | 166 W/m² | - |
| 1777915642 | 20.56° C | 46% | 1002 hPa | 0 mm | - | 168 W/m² | - |
| 1777915341 | 20.56° C | 44% | 1002 hPa | 0 mm | - | 170 W/m² | - |
| 1777915042 | 20° C | 43% | 1002 hPa | 0 mm | - | 166 W/m² | - |
| 1777914441 | 20.56° C | 42% | 1002 hPa | 0 mm | - | 164 W/m² | - |
| 1777914142 | 20° C | 46% | 1002 hPa | 0 mm | - | 169 W/m² | - |
| 1777913842 | 18.89° C | 46% | 1002 hPa | 0 mm | - | 168 W/m² | - |
| 1777913541 | 19.44° C | 43% | 1002 hPa | 0 mm | - | 168 W/m² | - |
| 1777912641 | 20.56° C | 44% | 1002 hPa | 0 mm | - | 164 W/m² | - |
| 1777912341 | 20.56° C | 46% | 1002 hPa | 0 mm | - | 164 W/m² | - |
* Rain latest hour (hover to see other rain measurements)
** Current wind speed in m/s (hover to see current wind gust speed)